,,,PA_Meas_PMT16A,,PR_Meas_QMR101_102,,RH_Meas_QMH101,,SR_Meas_QMS101,,TA_Meas_QMH101,,GenWind,,GenWind,
date,time,status,PA,status,PR,status,RH,status,SR,status,TA,status,DirAvg,status,SpdAvg,
2008-11-09, 00:00:05,VALID,1002.61,VALID,0,VALID,91.1728,VALID,0,VALID,24.8911,VALID,355,VALID,0.924219,
2008-11-09, 00:01:05,VALID,1002.59,VALID,0,VALID,90.9668,VALID,0,VALID,24.9106,VALID,354,VALID,0.651563,
2008-11-09, 00:02:05,VALID,1002.58,VALID,0,VALID,91.0431,VALID,0,VALID,24.9125,VALID,348,VALID,1.01992,
2008-11-09, 00:03:05,VALID,1002.56,VALID,0,VALID,91.127,VALID,0,VALID,24.893,VALID,10,VALID,0.607813,
2008-11-09, 00:04:05,VALID,1002.56,VALID,0,VALID,91.1956,VALID,0,VALID,24.8522,VALID,2,VALID,0.833594,
2008-11-09, 00:05:05,VALID,1002.53,VALID,0,VALID,91.2643,VALID,0,VALID,24.8735,VALID,285,VALID,0.90625,
2008-11-09, 00:06:05,VALID,1002.54,VALID,0,VALID,91.3101,VALID,0,VALID,24.8522,VALID,6,VALID,0.640234,
2008-11-09, 00:07:05,VALID,1002.54,VALID,0,VALID,91.333,VALID,0,VALID,24.8132,VALID,9,VALID,0.410937,
2008-11-09, 00:08:05,VALID,1002.54,VALID,0,VALID,91.4779,VALID,0,VALID,24.8132,VALID,352,VALID,0.425391,
2008-11-09, 00:09:05,VALID,1002.52,VALID,0,VALID,91.5161,VALID,0,VALID,24.8346,VALID,16,VALID,0.399609,
2008-11-09, 00:10:05,VALID,1002.53,VALID,0,VALID,91.6076,VALID,0,VALID,24.8327,VALID,357,VALID,0.789844,
2008-11-09, 00:11:05,VALID,1002.54,VALID,0,VALID,91.455,VALID,0,VALID,24.854,VALID,355,VALID,0.440234,
2008-11-09, 00:12:05,VALID,1002.52,VALID,0,VALID,91.4245,VALID,0,VALID,24.8151,VALID,356,VALID,0.429297,
2008-11-09, 00:13:05,VALID,1002.5,VALID,0,VALID,91.5161,VALID,0,VALID,24.7937,VALID,356,VALID,0.581641,
2008-11-09, 00:14:05,VALID,1002.51,VALID,0,VALID,91.6991,VALID,0,VALID,24.7761,VALID,356,VALID,0.547266,
2008-11-09, 00:15:05,VALID,1002.47,VALID,0,VALID,91.867,VALID,0,VALID,24.7761,VALID,347,VALID,0.528906,
2008-11-09, 00:16:05,VALID,1002.52,VALID,0,VALID,91.9128,VALID,0,VALID,24.7743,VALID,348,VALID,0.515234,
2008-11-09, 00:17:05,VALID,1002.48,VALID,0,VALID,91.8822,VALID,0,VALID,24.7548,VALID,346,VALID,0.446094,
2008-11-09, 00:18:05,VALID,1002.5,VALID,0,VALID,91.9433,VALID,0,VALID,24.7353,VALID,346,VALID,0.515625,
2008-11-09, 00:19:05,VALID,1002.47,VALID,0,VALID,92.0119,VALID,0,VALID,24.7159,VALID,353,VALID,0.756641,
2008-11-09, 00:20:05,VALID,1002.47,VALID,0,VALID,92.0501,VALID,0,VALID,24.7372,VALID,359,VALID,0.470313,
2008-11-09, 00:21:05,VALID,1002.44,VALID,0,VALID,92.1645,VALID,0,VALID,24.7372,VALID,358,VALID,0.669141,
2008-11-09, 00:22:05,VALID,1002.46,VALID,0,VALID,92.195,VALID,0,VALID,24.7159,VALID,346,VALID,0.698828,
2008-11-09, 00:23:05,VALID,1002.46,VALID,0,VALID,92.1798,VALID,0,VALID,24.7761,VALID,355,VALID,0.599609,
2008-11-09, 00:24:05,VALID,1002.45,VALID,0,VALID,92.0196,VALID,0,VALID,24.7956,VALID,353,VALID,0.661719,
2008-11-09, 00:25:05,VALID,1002.45,VALID,0,VALID,91.9356,VALID,0,VALID,24.8151,VALID,2,VALID,0.396875,
2008-11-09, 00:26:05,VALID,1002.46,VALID,0,VALID,91.8594,VALID,0,VALID,24.8132,VALID,2,VALID,0.580859,
2008-11-09, 00:27:05,VALID,1002.45,VALID,0,VALID,91.8822,VALID,0,VALID,24.7937,VALID,11,VALID,0.571875,
2008-11-09, 00:28:05,VALID,1002.44,VALID,0,VALID,91.8746,VALID,0,VALID,24.8132,VALID,11,VALID,0.438281,
2008-11-09, 00:29:05,VALID,1002.46,VALID,0,VALID,91.9051,VALID,0,VALID,24.7937,VALID,11,VALID,0.674219,
2008-11-09, 00:30:05,VALID,1002.46,VALID,0,VALID,91.9509,VALID,0,VALID,24.7956,VALID,349,VALID,0.787891,
2008-11-09, 00:31:05,VALID,1002.45,VALID,0,VALID,92.0196,VALID,0,VALID,24.8132,VALID,2,VALID,0.962891,
2008-11-09, 00:32:05,VALID,1002.46,VALID,0,VALID,91.8136,VALID,0,VALID,24.8716,VALID,358,VALID,0.877734,
2008-11-09, 00:33:05,VALID,1002.44,VALID,0,VALID,91.7297,VALID,0,VALID,24.9125,VALID,356,VALID,0.623438,
2008-11-09, 00:34:05,VALID,1002.46,VALID,0,VALID,91.7068,VALID,0,VALID,24.8911,VALID,10,VALID,1.07539,
2008-11-09, 00:35:05,VALID,1002.45,VALID,0,VALID,91.5923,VALID,0,VALID,24.93,VALID,355,VALID,0.586719,
2008-11-09, 00:36:05,VALID,1002.46,VALID,0,VALID,91.4474,VALID,0,VALID,24.9885,VALID,31,VALID,0.998047,
2008-11-09, 00:37:05,VALID,1002.44,VALID,0,VALID,91.1041,VALID,0,VALID,25.0682,VALID,346,VALID,0.862109,
2008-11-09, 00:38:05,VALID,1002.45,VALID,0,VALID,90.9668,VALID,0,VALID,25.1656,VALID,84,VALID,1.14219,
2008-11-09, 00:39:05,VALID,1002.46,VALID,0,VALID,90.3412,VALID,0,VALID,25.2416,VALID,351,VALID,0.863672,
2008-11-09, 00:40:05,VALID,1002.45,VALID,0,VALID,90.0742,VALID,0,VALID,25.2806,VALID,318,VALID,0.669922,
2008-11-09, 00:41:05,VALID,1002.42,VALID,0,VALID,89.8606,VALID,0,VALID,25.3214,VALID,350,VALID,0.475391,
2008-11-09, 00:42:05,VALID,1002.44,VALID,0,VALID,89.6241,VALID,0,VALID,25.3195,VALID,353,VALID,0.182422,
2008-11-09, 00:43:05,VALID,1002.44,VALID,0,VALID,89.5554,VALID,0,VALID,25.3,VALID,353,VALID,0.358594,
2008-11-09, 00:44:05,VALID,1002.43,VALID,0,VALID,89.7004,VALID,0,VALID,25.2825,VALID,353,VALID,0.423047,
2008-11-09, 00:45:05,VALID,1002.46,VALID,0,VALID,89.853,VALID,0,VALID,25.2027,VALID,8,VALID,0.477734,
2008-11-09, 00:46:05,VALID,1002.44,VALID,0,VALID,89.9598,VALID,0.100563,VALID,25.1832,VALID,7,VALID,0.266406,
2008-11-09, 00:47:05,VALID,1002.46,VALID,0,VALID,90.0971,VALID,0,VALID,25.1851,VALID,350,VALID,0.0597656,
2008-11-09, 00:48:05,VALID,1002.42,VALID,0,VALID,90.0742,VALID,0,VALID,25.1851,VALID,351,VALID,0.00234375,
2008-11-09, 00:49:05,VALID,1002.42,VALID,0,VALID,90.2039,VALID,0,VALID,25.1442,VALID,353,VALID,0.407422,
2008-11-09, 00:50:05,VALID,1002.4,VALID,0,VALID,90.3107,VALID,0,VALID,25.1442,VALID,348,VALID,0.884766,
2008-11-09, 00:51:05,VALID,1002.38,VALID,0,VALID,90.1657,VALID,0,VALID,25.1248,VALID,346,VALID,0.481641,
2008-11-09, 00:52:05,VALID,1002.33,VALID,0,VALID,90.1505,VALID,0.100563,VALID,25.1248,VALID,346,VALID,0.234766,
2008-11-09, 00:53:05,VALID,1002.34,VALID,0,VALID,90.1505,VALID,0,VALID,25.0663,VALID,348,VALID,0.675781,
2008-11-09, 00:54:05,VALID,1002.34,VALID,0,VALID,90.3946,VALID,0,VALID,25.0255,VALID,348,VALID,0.328125,
2008-11-09, 00:55:05,VALID,1002.35,VALID,0,VALID,90.6616,VALID,0,VALID,24.9866,VALID,335,VALID,0.227734,
2008-11-09, 00:56:05,VALID,1002.33,VALID,0,VALID,90.715,VALID,0,VALID,24.9495,VALID,335,VALID,0.4875,
2008-11-09, 00:57:05,VALID,1002.34,VALID,0,VALID,91.0431,VALID,0.100563,VALID,24.93,VALID,342,VALID,0.149219,
2008-11-09, 00:58:05,VALID,1002.34,VALID,0,VALID,91.2033,VALID,0.100563,VALID,24.9087,VALID,342,VALID,0.489062,
2008-11-09, 00:59:05,VALID,1002.32,VALID,0,VALID,91.333,VALID,0.100563,VALID,24.9495,VALID,337,VALID,0.696484,
2008-11-09, 01:00:05,VALID,1002.35,VALID,0,VALID,91.1193,VALID,0.100563,VALID,24.969,VALID,336,VALID,0.608203,
2008-11-09, 01:01:05,VALID,1002.35,VALID,0,VALID,91.0659,VALID,0,VALID,24.9476,VALID,349,VALID,0.776563,
2008-11-09, 01:02:05,VALID,1002.34,VALID,0,VALID,91.0354,VALID,0.100563,VALID,24.9476,VALID,345,VALID,0.353516,
2008-11-09, 01:03:05,VALID,1002.34,VALID,0,VALID,91.0507,VALID,0.100563,VALID,24.9476,VALID,345,VALID,0.550391,
2008-11-09, 01:04:05,VALID,1002.34,VALID,0,VALID,91.333,VALID,0.100563,VALID,24.9495,VALID,11,VALID,0.537891,
2008-11-09, 01:05:05,VALID,1002.37,VALID,0,VALID,91.4398,VALID,0.100563,VALID,24.969,VALID,7,VALID,0.344922,
2008-11-09, 01:06:05,VALID,1002.35,VALID,0,VALID,91.2185,VALID,0.100563,VALID,24.9671,VALID,7,VALID,0.43125,
2008-11-09, 01:07:05,VALID,1002.33,VALID,0,VALID,91.1956,VALID,0.100563,VALID,24.9282,VALID,2,VALID,0.420312,
2008-11-09, 01:08:05,VALID,1002.35,VALID,0,VALID,91.3177,VALID,0.100563,VALID,24.9282,VALID,345,VALID,0.542188,
2008-11-09, 01:09:05,VALID,1002.32,VALID,0,VALID,91.2414,VALID,0,VALID,24.9495,VALID,350,VALID,0.327344,
2008-11-09, 01:10:05,VALID,1002.31,VALID,0,VALID,91.2414,VALID,0,VALID,24.9106,VALID,343,VALID,0.526172,
2008-11-09, 01:11:04,VALID,1002.33,VALID,0,VALID,91.3635,VALID,0,VALID,24.8911,VALID,334,VALID,0.412891,
2008-11-09, 01:12:04,VALID,1002.31,VALID,0,VALID,91.5618,VALID,0,VALID,24.8911,VALID,331,VALID,0.541797,
2008-11-09, 01:13:04,VALID,1002.33,VALID,0,VALID,91.5161,VALID,0,VALID,24.9319,VALID,331,VALID,0.00117188,
2008-11-09, 01:14:04,VALID,1002.32,VALID,0,VALID,91.4626,VALID,0,VALID,24.9125,VALID,332,VALID,0.354297,
2008-11-09, 01:15:04,VALID,1002.31,VALID,0,VALID,91.5389,VALID,0,VALID,24.8911,VALID,339,VALID,0.391016,
2008-11-09, 01:16:04,VALID,1002.31,VALID,0,VALID,91.5466,VALID,0,VALID,24.893,VALID,339,VALID,0.363672,
2008-11-09, 01:17:04,VALID,1002.29,VALID,0,VALID,91.4474,VALID,0,VALID,24.8522,VALID,339,VALID,0.223047,
2008-11-09, 01:18:04,VALID,1002.31,VALID,0,VALID,91.8975,VALID,0,VALID,24.8522,VALID,338,VALID,0.665234,
2008-11-09, 01:19:04,VALID,1002.29,VALID,0,VALID,91.7678,VALID,0,VALID,24.8522,VALID,339,VALID,0.274609,
2008-11-09, 01:20:04,VALID,1002.3,VALID,0,VALID,91.6076,VALID,0,VALID,24.8327,VALID,339,VALID,0,
2008-11-09, 01:21:04,VALID,1002.29,VALID,0,VALID,91.5389,VALID,0,VALID,24.8151,VALID,342,VALID,0,
2008-11-09, 01:22:04,VALID,1002.28,VALID,0,VALID,91.6686,VALID,0,VALID,24.7548,VALID,342,VALID,0,
2008-11-09, 01:23:04,VALID,1002.27,VALID,0,VALID,91.8594,VALID,0,VALID,24.7567,VALID,342,VALID,0,
2008-11-09, 01:24:04,VALID,1002.24,VALID,0,VALID,91.9814,VALID,0,VALID,24.675,VALID,344,VALID,0.282422,
2008-11-09, 01:25:04,VALID,1002.24,VALID,0,VALID,92.2637,VALID,0,VALID,24.6964,VALID,344,VALID,0.609766,
2008-11-09, 01:26:04,VALID,1002.24,VALID,0,VALID,92.3323,VALID,0,VALID,24.6964,VALID,336,VALID,0.200391,
2008-11-09, 01:27:04,VALID,1002.24,VALID,0,VALID,92.3018,VALID,0,VALID,24.6945,VALID,337,VALID,0.313281,
2008-11-09, 01:28:04,VALID,1002.21,VALID,0,VALID,92.3476,VALID,0,VALID,24.6964,VALID,337,VALID,0.422266,
2008-11-09, 01:29:04,VALID,1002.2,VALID,0,VALID,92.3629,VALID,0,VALID,24.6964,VALID,337,VALID,0.392188,
2008-11-09, 01:30:04,VALID,1002.2,VALID,0,VALID,92.4163,VALID,0,VALID,24.7177,VALID,344,VALID,0.593359,
2008-11-09, 01:31:04,VALID,1002.18,VALID,0,VALID,92.4468,VALID,0,VALID,24.7177,VALID,334,VALID,0.575391,
2008-11-09, 01:32:04,VALID,1002.19,VALID,0,VALID,92.3781,VALID,0.100563,VALID,24.7372,VALID,335,VALID,0.0632813,
2008-11-09, 01:33:04,VALID,1002.14,VALID,0,VALID,92.2866,VALID,0,VALID,24.6983,VALID,335,VALID,0.185937,
2008-11-09, 01:34:04,VALID,1002.15,VALID,0,VALID,92.5688,VALID,0,VALID,24.6574,VALID,335,VALID,0.520312,
2008-11-09, 01:35:04,VALID,1002.14,VALID,0,VALID,92.5536,VALID,0,VALID,24.6574,VALID,340,VALID,0.537109,
2008-11-09, 01:36:04,VALID,1002.11,VALID,0,VALID,92.5765,VALID,0,VALID,24.6788,VALID,340,VALID,0.434375,
2008-11-09, 01:37:04,VALID,1002.1,VALID,0,VALID,92.7977,VALID,0,VALID,24.6574,VALID,356,VALID,0.585156,
2008-11-09, 01:38:04,VALID,1002.12,VALID,0,VALID,92.7062,VALID,0,VALID,24.6983,VALID,357,VALID,0.585547,
2008-11-09, 01:39:04,VALID,1002.04,VALID,0,VALID,92.9121,VALID,0,VALID,24.6964,VALID,350,VALID,0.951563,
2008-11-09, 01:40:04,VALID,1002.05,VALID,0,VALID,92.7901,VALID,0,VALID,24.7353,VALID,352,VALID,0.443359,
2008-11-09, 01:41:04,VALID,1002.03,VALID,0,VALID,92.5688,VALID,0,VALID,24.7353,VALID,356,VALID,0.554297,
2008-11-09, 01:42:04,VALID,1002.01,VALID,0,VALID,92.6299,VALID,0,VALID,24.7353,VALID,356,VALID,0.170312,
2008-11-09, 01:43:04,VALID,1002.02,VALID,0,VALID,92.5993,VALID,0,VALID,24.7353,VALID,356,VALID,0.21875,
2008-11-09, 01:44:04,VALID,1002.02,VALID,0,VALID,92.6985,VALID,0,VALID,24.7159,VALID,356,VALID,0.300781,
2008-11-09, 01:45:04,VALID,1002.03,VALID,0,VALID,93.0418,VALID,0,VALID,24.8132,VALID,20,VALID,1.02852,
2008-11-09, 01:46:04,VALID,1002.03,VALID,0,VALID,92.8511,VALID,0,VALID,24.9106,VALID,17,VALID,0.362891,
2008-11-09, 01:47:04,VALID,1001.99,VALID,0,VALID,92.4315,VALID,0,VALID,24.9495,VALID,17,VALID,0.282422,
2008-11-09, 01:48:04,VALID,1001.98,VALID,0,VALID,92.1492,VALID,0,VALID,24.9495,VALID,17,VALID,0.304688,
2008-11-09, 01:49:04,VALID,1001.98,VALID,0,VALID,92.2408,VALID,0,VALID,24.969,VALID,16,VALID,0.499219,
2008-11-09, 01:50:04,VALID,1001.96,VALID,0,VALID,92.0272,VALID,0,VALID,24.969,VALID,16,VALID,0.332812,
2008-11-09, 01:51:04,VALID,1001.94,VALID,0,VALID,91.7449,VALID,0,VALID,24.93,VALID,16,VALID,0.0667969,
2008-11-09, 01:52:04,VALID,1001.92,VALID,0,VALID,91.7525,VALID,0,VALID,24.8716,VALID,16,VALID,0.142578,
2008-11-09, 01:53:04,VALID,1001.91,VALID,0,VALID,91.8517,VALID,0,VALID,24.8716,VALID,16,VALID,0.223828,
2008-11-09, 01:54:04,VALID,1001.89,VALID,0,VALID,91.6839,VALID,0,VALID,24.7937,VALID,16,VALID,0.455078,
2008-11-09, 01:55:04,VALID,1001.88,VALID,0,VALID,92.4544,VALID,0,VALID,24.7937,VALID,351,VALID,0.6625,
2008-11-09, 01:56:04,VALID,1001.88,VALID,0,VALID,92.2789,VALID,0,VALID,24.7937,VALID,4,VALID,0.492578,
2008-11-09, 01:57:04,VALID,1001.87,VALID,0,VALID,92.2637,VALID,0,VALID,24.7937,VALID,4,VALID,0.245703,
2008-11-09, 01:58:04,VALID,1001.84,VALID,0,VALID,92.1187,VALID,0,VALID,24.7159,VALID,4,VALID,0.1875,
2008-11-09, 01:59:04,VALID,1001.82,VALID,0,VALID,92.2789,VALID,0,VALID,24.6574,VALID,2,VALID,0.411719,
2008-11-09, 02:00:04,VALID,1001.87,VALID,0,VALID,92.4391,VALID,0,VALID,24.6769,VALID,1,VALID,0.3125,
2008-11-09, 02:01:04,VALID,1001.82,VALID,0,VALID,92.1645,VALID,0,VALID,24.5582,VALID,1,VALID,0.283203,
2008-11-09, 02:02:04,VALID,1001.79,VALID,0,VALID,92.3857,VALID,0.100563,VALID,24.5193,VALID,4,VALID,0.205078,
2008-11-09, 02:03:04,VALID,1001.8,VALID,0,VALID,92.5154,VALID,0,VALID,24.4822,VALID,59,VALID,0.148047,
2008-11-09, 02:04:04,VALID,1001.78,VALID,0,VALID,92.6909,VALID,0,VALID,24.4841,VALID,59,VALID,0.352734,
2008-11-09, 02:05:04,VALID,1001.76,VALID,0,VALID,92.8511,VALID,0,VALID,24.4433,VALID,58,VALID,0.0132813,
2008-11-09, 02:06:04,VALID,1001.74,VALID,0,VALID,92.9732,VALID,0,VALID,24.4238,VALID,58,VALID,0.0230469,
2008-11-09, 02:07:04,VALID,1001.74,VALID,0,VALID,93.3165,VALID,0,VALID,24.4238,VALID,58,VALID,0.288281,
2008-11-09, 02:08:04,VALID,1001.73,VALID,0,VALID,93.2936,VALID,0,VALID,24.4043,VALID,58,VALID,0.469922,
2008-11-09, 02:09:04,VALID,1001.74,VALID,0,VALID,93.0495,VALID,0,VALID,24.3849,VALID,58,VALID,0.191016,
2008-11-09, 02:10:04,VALID,1001.74,VALID,0,VALID,93.2707,VALID,0,VALID,24.3459,VALID,58,VALID,0.182031,
2008-11-09, 02:11:04,VALID,1001.74,VALID,0,VALID,93.4614,VALID,0,VALID,24.3654,VALID,16,VALID,0.489453,
2008-11-09, 02:12:04,VALID,1001.72,VALID,0,VALID,93.5377,VALID,0,VALID,24.3459,VALID,40,VALID,0.434766,
2008-11-09, 02:13:04,VALID,1001.73,VALID,0,VALID,93.4919,VALID,0,VALID,24.3459,VALID,21,VALID,0.628906,
2008-11-09, 02:14:04,VALID,1001.71,VALID,0,VALID,93.6903,VALID,0,VALID,24.3673,VALID,29,VALID,0.407813,
2008-11-09, 02:15:04,VALID,1001.68,VALID,0,VALID,94.1404,VALID,0,VALID,24.4822,VALID,52,VALID,0.413672,
2008-11-09, 02:16:04,VALID,1001.72,VALID,0,VALID,93.8886,VALID,0,VALID,24.5406,VALID,52,VALID,0.308984,
2008-11-09, 02:17:04,VALID,1001.67,VALID,0,VALID,93.7971,VALID,0,VALID,24.5212,VALID,21,VALID,0.638672,
2008-11-09, 02:18:04,VALID,1001.69,VALID,0,VALID,94.1785,VALID,0,VALID,24.6983,VALID,20,VALID,1.13086,
2008-11-09, 02:19:04,VALID,1001.67,VALID,0,VALID,93.9191,VALID,0,VALID,24.8327,VALID,12,VALID,0.864844,
2008-11-09, 02:20:04,VALID,1001.64,VALID,0,VALID,93.6521,VALID,0,VALID,24.9319,VALID,337,VALID,0.46875,
2008-11-09, 02:21:04,VALID,1001.65,VALID,0,VALID,93.202,VALID,0,VALID,24.93,VALID,337,VALID,0.3875,
2008-11-09, 02:22:04,VALID,1001.63,VALID,0,VALID,93.1563,VALID,0,VALID,24.9495,VALID,337,VALID,0.425781,
2008-11-09, 02:23:04,VALID,1001.62,VALID,0,VALID,92.2255,VALID,0,VALID,24.8716,VALID,340,VALID,0.430078,
2008-11-09, 02:24:04,VALID,1001.59,VALID,0,VALID,91.8899,VALID,0,VALID,24.7353,VALID,340,VALID,0.427344,
2008-11-09, 02:25:04,VALID,1001.56,VALID,0,VALID,92.1264,VALID,0,VALID,24.6788,VALID,340,VALID,0.395312,
2008-11-09, 02:26:04,VALID,1001.56,VALID,0,VALID,92.6756,VALID,0,VALID,24.6769,VALID,340,VALID,0.316797,
2008-11-09, 02:27:04,VALID,1001.54,VALID,0,VALID,92.1721,VALID,0,VALID,24.562,VALID,340,VALID,0.157031,
2008-11-09, 02:28:04,VALID,1001.52,VALID,0,VALID,92.5231,VALID,0,VALID,24.4628,VALID,340,VALID,0.437891,
2008-11-09, 02:29:04,VALID,1001.53,VALID,0,VALID,92.6909,VALID,0,VALID,24.4257,VALID,340,VALID,0.330078,
2008-11-09, 02:30:04,VALID,1001.55,VALID,0,VALID,92.7901,VALID,0,VALID,24.3459,VALID,340,VALID,0.369141,
2008-11-09, 02:31:04,VALID,1001.54,VALID,0,VALID,93.0952,VALID,0,VALID,24.307,VALID,340,VALID,0.325391,
2008-11-09, 02:32:04,VALID,1001.54,VALID,0,VALID,93.6826,VALID,0,VALID,24.3459,VALID,340,VALID,0.3875,
2008-11-09, 02:33:04,VALID,1001.53,VALID,0,VALID,93.5072,VALID,0,VALID,24.3459,VALID,340,VALID,0.4625,
2008-11-09, 02:34:04,VALID,1001.52,VALID,0,VALID,93.2707,VALID,0,VALID,24.2681,VALID,340,VALID,0.385547,
2008-11-09, 02:35:04,VALID,1001.53,VALID,0,VALID,93.6369,VALID,0,VALID,24.2681,VALID,340,VALID,0.226563,
2008-11-09, 02:36:04,VALID,1001.52,VALID,0,VALID,94.3387,VALID,0,VALID,24.4062,VALID,360,VALID,0.577734,
2008-11-09, 02:37:04,VALID,1001.56,VALID,0,VALID,94.3769,VALID,0,VALID,24.4628,VALID,360,VALID,0.321875,
2008-11-09, 02:38:04,VALID,1001.53,VALID,0,VALID,94.2777,VALID,0,VALID,24.5017,VALID,360,VALID,0.266797,
2008-11-09, 02:39:04,VALID,1001.53,VALID,0,VALID,93.9573,VALID,0,VALID,24.4822,VALID,5,VALID,0.616016,
2008-11-09, 02:40:04,VALID,1001.51,VALID,0,VALID,94.1099,VALID,0.100563,VALID,24.4822,VALID,356,VALID,0.675781,
2008-11-09, 02:41:04,VALID,1001.52,VALID,0,VALID,94.0259,VALID,0.100563,VALID,24.5193,VALID,359,VALID,0.492969,
2008-11-09, 02:42:04,VALID,1001.55,VALID,0,VALID,93.82,VALID,0.100563,VALID,24.5406,VALID,353,VALID,0.531641,
2008-11-09, 02:43:04,VALID,1001.55,VALID,0,VALID,93.3241,VALID,0.100563,VALID,24.4822,VALID,2,VALID,0.408594,
2008-11-09, 02:44:04,VALID,1001.53,VALID,0,VALID,93.3012,VALID,0,VALID,24.4238,VALID,2,VALID,0.225391,
2008-11-09, 02:45:04,VALID,1001.52,VALID,0,VALID,93.8047,VALID,0.100563,VALID,24.4628,VALID,29,VALID,0.407813,
2008-11-09, 02:46:04,VALID,1001.52,VALID,0,VALID,93.6598,VALID,0.100563,VALID,24.5017,VALID,28,VALID,0.314844,
2008-11-09, 02:47:04,VALID,1001.51,VALID,0,VALID,93.3928,VALID,0,VALID,24.4238,VALID,28,VALID,0.298438,
2008-11-09, 02:48:04,VALID,1001.53,VALID,0,VALID,93.3394,VALID,0.100563,VALID,24.3636,VALID,26,VALID,0.346484,
2008-11-09, 02:49:04,VALID,1001.52,VALID,0,VALID,93.3317,VALID,0.100563,VALID,24.3265,VALID,26,VALID,0.196094,
2008-11-09, 02:50:04,VALID,1001.51,VALID,0,VALID,94.0336,VALID,0.100563,VALID,24.3849,VALID,48,VALID,0.470313,
2008-11-09, 02:51:04,VALID,1001.5,VALID,0,VALID,93.7513,VALID,0,VALID,24.3654,VALID,32,VALID,0.389453,
2008-11-09, 02:52:04,VALID,1001.49,VALID,0,VALID,93.881,VALID,0.100563,VALID,24.3654,VALID,32,VALID,0.271094,
2008-11-09, 02:53:04,VALID,1001.47,VALID,0,VALID,94.4303,VALID,0.100563,VALID,24.4433,VALID,8,VALID,0.524609,
2008-11-09, 02:54:04,VALID,1001.49,VALID,0,VALID,94.5066,VALID,0.100563,VALID,24.5193,VALID,5,VALID,0.357812,
2008-11-09, 02:55:04,VALID,1001.5,VALID,0,VALID,94.4379,VALID,0.100563,VALID,24.5796,VALID,5,VALID,0.147266,
2008-11-09, 02:56:04,VALID,1001.46,VALID,0,VALID,93.942,VALID,0,VALID,24.5406,VALID,5,VALID,0.645312,
2008-11-09, 02:57:04,VALID,1001.45,VALID,0,VALID,94.0336,VALID,0,VALID,24.5406,VALID,5,VALID,0.170703,
2008-11-09, 02:58:04,VALID,1001.45,VALID,0,VALID,93.9802,VALID,0.100563,VALID,24.5193,VALID,5,VALID,0,
2008-11-09, 02:59:04,VALID,1001.42,VALID,0,VALID,93.8581,VALID,0,VALID,24.5017,VALID,5,VALID,0,
2008-11-09, 03:00:04,VALID,1001.44,VALID,0,VALID,93.6369,VALID,0,VALID,24.4238,VALID,5,VALID,0,
2008-11-09, 03:01:04,VALID,1001.43,VALID,0,VALID,93.7132,VALID,0,VALID,24.3654,VALID,5,VALID,0,
2008-11-09, 03:02:04,VALID,1001.42,VALID,0,VALID,93.9497,VALID,0,VALID,24.4043,VALID,5,VALID,0,
2008-11-09, 03:03:04,VALID,1001.47,VALID,0,VALID,93.7895,VALID,0.100563,VALID,24.3459,VALID,6,VALID,0,
2008-11-09, 03:04:04,VALID,1001.44,VALID,0,VALID,93.6979,VALID,0.100563,VALID,24.2273,VALID,17,VALID,0.0707031,
2008-11-09, 03:05:04,VALID,1001.43,VALID,0,VALID,93.8276,VALID,0.100563,VALID,24.2097,VALID,17,VALID,0.346875,
2008-11-09, 03:06:04,VALID,1001.44,VALID,0,VALID,93.9191,VALID,0.100563,VALID,24.2097,VALID,17,VALID,0.295703,
2008-11-09, 03:07:04,VALID,1001.44,VALID,0,VALID,93.8276,VALID,0.100563,VALID,24.1318,VALID,17,VALID,0.219922,
2008-11-09, 03:08:04,VALID,1001.47,VALID,0,VALID,94.1251,VALID,0,VALID,24.1513,VALID,17,VALID,0.466797,
2008-11-09, 03:09:04,VALID,1001.47,VALID,0,VALID,94.2701,VALID,0,VALID,24.1318,VALID,17,VALID,0.29375,
2008-11-09, 03:10:04,VALID,1001.44,VALID,0,VALID,94.0488,VALID,0,VALID,24.0734,VALID,17,VALID,0.344531,
2008-11-09, 03:11:04,VALID,1001.45,VALID,0,VALID,93.942,VALID,0,VALID,24.0168,VALID,17,VALID,0.488281,
2008-11-09, 03:12:04,VALID,1001.43,VALID,0,VALID,94.2319,VALID,0,VALID,23.9973,VALID,17,VALID,0.571875,
2008-11-09, 03:13:04,VALID,1001.43,VALID,0,VALID,94.5981,VALID,0,VALID,24.0557,VALID,17,VALID,0.460547,
2008-11-09, 03:14:04,VALID,1001.42,VALID,0,VALID,94.5829,VALID,0,VALID,24.0752,VALID,13,VALID,0.482812,
2008-11-09, 03:15:04,VALID,1001.39,VALID,0,VALID,94.2853,VALID,0,VALID,24.0168,VALID,13,VALID,0.442187,
2008-11-09, 03:16:04,VALID,1001.38,VALID,0,VALID,94.4532,VALID,0,VALID,24.0186,VALID,13,VALID,0.475391,
2008-11-09, 03:17:04,VALID,1001.37,VALID,0,VALID,94.5905,VALID,0,VALID,23.9955,VALID,12,VALID,0.600391,
2008-11-09, 03:18:04,VALID,1001.33,VALID,0,VALID,94.7202,VALID,0,VALID,24.0168,VALID,12,VALID,0.539844,
2008-11-09, 03:19:04,VALID,1001.32,VALID,0,VALID,94.6897,VALID,0,VALID,24.015,VALID,12,VALID,0.875781,
2008-11-09, 03:20:04,VALID,1001.29,VALID,0,VALID,94.7812,VALID,0,VALID,24.015,VALID,12,VALID,0.521484,
2008-11-09, 03:21:04,VALID,1001.27,VALID,0,VALID,95.0177,VALID,0,VALID,24.1336,VALID,6,VALID,0.691797,
2008-11-09, 03:22:04,VALID,1001.25,VALID,0,VALID,94.9796,VALID,0,VALID,24.1336,VALID,4,VALID,0.724219,
2008-11-09, 03:23:04,VALID,1001.27,VALID,0,VALID,94.9872,VALID,0,VALID,24.1513,VALID,6,VALID,0.611328,
2008-11-09, 03:24:04,VALID,1001.26,VALID,0,VALID,94.949,VALID,0,VALID,24.1513,VALID,20,VALID,0.626172,
2008-11-09, 03:25:04,VALID,1001.26,VALID,0,VALID,95.1016,VALID,0,VALID,24.2291,VALID,30,VALID,0.800391,
2008-11-09, 03:26:04,VALID,1001.28,VALID,0,VALID,95.0024,VALID,0,VALID,24.2291,VALID,26,VALID,0.616016,
2008-11-09, 03:27:04,VALID,1001.25,VALID,0,VALID,94.949,VALID,0,VALID,24.2504,VALID,8,VALID,0.750391,
2008-11-09, 03:28:04,VALID,1001.24,VALID,0,VALID,95.3839,VALID,0,VALID,24.4238,VALID,349,VALID,0.569922,
2008-11-09, 03:29:04,VALID,1001.25,VALID,0,VALID,95.0101,VALID,0,VALID,24.3849,VALID,350,VALID,0.589063,
2008-11-09, 03:30:04,VALID,1001.27,VALID,0,VALID,94.9796,VALID,0,VALID,24.4433,VALID,352,VALID,0.433203,
2008-11-09, 03:31:04,VALID,1001.28,VALID,0,VALID,94.8575,VALID,0,VALID,24.4646,VALID,357,VALID,0.655859,
2008-11-09, 03:32:04,VALID,1001.3,VALID,0,VALID,95.0864,VALID,0,VALID,24.5406,VALID,357,VALID,0.284375,
2008-11-09, 03:33:04,VALID,1001.31,VALID,0,VALID,94.9414,VALID,0,VALID,24.6009,VALID,26,VALID,0.714453,
2008-11-09, 03:34:04,VALID,1001.33,VALID,0,VALID,95.1093,VALID,0,VALID,24.6983,VALID,22,VALID,0.573828,
2008-11-09, 03:35:04,VALID,1001.35,VALID,0,VALID,94.8804,VALID,0,VALID,24.6964,VALID,18,VALID,0.501953,
2008-11-09, 03:36:04,VALID,1001.34,VALID,0,VALID,94.56,VALID,0,VALID,24.6769,VALID,18,VALID,0.0398437,
2008-11-09, 03:37:04,VALID,1001.35,VALID,0,VALID,94.1633,VALID,0,VALID,24.599,VALID,18,VALID,0,
2008-11-09, 03:38:04,VALID,1001.35,VALID,0,VALID,94.0336,VALID,0,VALID,24.5425,VALID,18,VALID,0,
2008-11-09, 03:39:04,VALID,1001.36,VALID,0,VALID,93.881,VALID,0,VALID,24.4841,VALID,18,VALID,0,
2008-11-09, 03:40:04,VALID,1001.36,VALID,0,VALID,93.9191,VALID,0,VALID,24.4451,VALID,18,VALID,0,
2008-11-09, 03:41:04,VALID,1001.37,VALID,0,VALID,93.9344,VALID,0,VALID,24.3867,VALID,18,VALID,0,
2008-11-09, 03:42:04,VALID,1001.35,VALID,0,VALID,94.0259,VALID,0,VALID,24.3459,VALID,18,VALID,0,
2008-11-09, 03:43:04,VALID,1001.38,VALID,0,VALID,94.0641,VALID,0,VALID,24.3478,VALID,18,VALID,0,
2008-11-09, 03:44:04,VALID,1001.39,VALID,0,VALID,94.1175,VALID,0,VALID,24.3088,VALID,18,VALID,0,